This is the latest recevied weather packets stored in our database for station/object KB2SKP. If no packets are shown the sender has not sent any weather packets the latest 10 day(s).
| Time | Temp. | Humidity | Pressure | Rain* | Wind** | Luminosity | Snow |
|---|---|---|---|---|---|---|---|
| 1777998808 | 26.11° C | 42% | 1009.6 hPa | 0 mm | - | 35 W/m² | - |
| 1777998506 | 25.56° C | 43% | 1009.7 hPa | 0 mm | - | 35 W/m² | - |
| 1777998202 | 25.56° C | 44% | 1009.9 hPa | 0 mm | - | 35 W/m² | - |
| 1777997899 | 25.56° C | 43% | 1009.8 hPa | 0 mm | - | 38 W/m² | - |
| 1777997597 | 25° C | 46% | 1009.7 hPa | 0 mm | - | 35 W/m² | - |
| 1777996992 | 25° C | 45% | 1010.2 hPa | 0 mm | - | 35 W/m² | - |
| 1777996688 | 25° C | 47% | 1010.1 hPa | 0 mm | - | 90 W/m² | - |
| 1777996384 | 25° C | 47% | 1009.9 hPa | 0 mm | - | 48 W/m² | - |
| 1777995473 | 23.89° C | 48% | 1010 hPa | 0 mm | - | 35 W/m² | - |
| 1777995170 | 24.44° C | 50% | 1010.1 hPa | 0 mm | - | 35 W/m² | - |
| 1777994867 | 23.89° C | 50% | 1010 hPa | 0 mm | - | 36 W/m² | - |
| 1777994564 | 23.89° C | 50% | 1009.9 hPa | 0 mm | - | 34 W/m² | - |
| 1777994258 | 23.33° C | 51% | 1010.1 hPa | 0 mm | - | 35 W/m² | - |
| 1777993652 | 23.33° C | 50% | 1009.9 hPa | 0 mm | - | 91 W/m² | - |
| 1777993349 | 23.89° C | 52% | 1009.9 hPa | 0 mm | - | 57 W/m² | - |
| 1777991835 | 22.22° C | 54% | 1010.2 hPa | 0 mm | - | 69 W/m² | - |
| 1777991229 | 21.67° C | 54% | 1010.1 hPa | 0 mm | - | 35 W/m² | - |
| 1777990927 | 21.67° C | 55% | 1009.9 hPa | 0 mm | - | 50 W/m² | - |
| 1777990624 | 21.67° C | 57% | 1010.2 hPa | 0 mm | - | 66 W/m² | - |
| 1777990321 | 20.56° C | 56% | 1010.1 hPa | 0 mm | - | 303 W/m² | - |
| 1777990017 | 21.11° C | 56% | 1010.1 hPa | 0 mm | - | 55 W/m² | - |
| 1777988197 | 20° C | 60% | 1009.9 hPa | 0 mm | - | 68 W/m² | - |
| 1777987893 | 19.44° C | 61% | 1010.1 hPa | 0 mm | - | 75 W/m² | - |
| 1777987589 | 19.44° C | 62% | 1010.1 hPa | 0 mm | - | 90 W/m² | - |
| 1777987287 | 18.89° C | 62% | 1010.1 hPa | 0 mm | - | 36 W/m² | - |
* Rain latest hour (hover to see other rain measurements)
** Current wind speed in m/s (hover to see current wind gust speed)